Terminal Aerodrome Forecast
Issued by NWS Wilmington, NC

Home | Current Version | Previous Version | Text Only | Print | Product List | Glossary On
Versions: 1 2 3 4 5 6 7 8 9 10 11 12 13 14 15 16 17 18 19 20 21 22 23 24 25 26 27 28 29 30 31
709
FTUS42 KILM 251305 AAA
TAFILM
TAF AMD
KILM 251305Z 2513/2612 08009KT P6SM VCSH SCT020 BKN050
     FM260100 06007KT P6SM BKN020=

USA.gov is the U.S. government's official web portal to all federal, state and local government web resources and services.